| time (UTC) | temp C | wind direction | speed KPH | gust KPH | rain 1hr cm | rain 24hr cm | rain mn cm | humidity % | barometer mb |
| 20260503172053 | 16 | 339 | 8.0 | 9.7 | 0.00 | 0.00 | 0.00 | 40 | 1019.2 |
| 20260503171544 | 16 | 339 | 8.0 | 9.7 | 0.00 | 0.00 | 0.00 | 40 | 1019.2 |
| 20260503171041 | 16 | 302 | 6.4 | 9.7 | 0.00 | 0.00 | 0.00 | 39 | 1019.1 |
| 20260503150906 | 14 | 346 | 3.2 | 6.4 | 0.00 | 0.00 | 0.00 | 46 | 1020.6 |
| 20260503150402 | 15 | 174 | 3.2 | 6.4 | 0.00 | 0.00 | 0.00 | 48 | 1020.6 |
| 20260503131256 | 10 | 284 | 6.4 | 8.0 | 0.00 | 0.00 | 0.00 | 52 | 1020.6 |
| 20260503130753 | 10 | 326 | 3.2 | 6.4 | 0.00 | 0.00 | 0.00 | 54 | 1020.5 |
| 20260503130251 | 10 | 330 | 3.2 | 6.4 | 0.00 | 0.00 | 0.00 | 53 | 1020.7 |
| 20260503120217 | 5 | 295 | 4.8 | 6.4 | 0.00 | 0.00 | 0.00 | 75 | 1020.5 |
| 20260503110644 | 0 | 281 | 1.6 | 4.8 | 0.00 | 0.00 | 0.00 | 99 | 1020.1 |
| 20260503110142 | 0 | 313 | 1.6 | 3.2 | 0.00 | 0.00 | 0.00 | 99 | 1019.7 |
| 20260503100108 | 0 | 308 | 3.2 | 4.8 | 0.00 | 0.00 | 0.00 | 99 | 1019.4 |
| 20260503081458 | 0 | 283 | 1.6 | 3.2 | 0.00 | 0.00 | 0.00 | 99 | 1019.3 |
| 20260503080954 | 0 | 278 | 1.6 | 3.2 | 0.00 | 0.00 | 0.00 | 99 | 1019.2 |
| 20260503080451 | 0 | 271 | 3.2 | 3.2 | 0.00 | 0.00 | 0.00 | 99 | 1019.2 |
| 20260503072927 | 0 | 292 | 3.2 | 4.8 | 0.00 | 0.00 | 0.00 | 98 | 1019.0 |
| 20260503072425 | 0 | 291 | 3.2 | 3.2 | 0.00 | 0.00 | 0.00 | 98 | 1019.3 |
| 20260503071922 | 0 | 322 | 1.6 | 3.2 | 0.00 | 0.00 | 0.00 | 98 | 1019.0 |
| 20260503071419 | 0 | 291 | 0.0 | 3.2 | 0.00 | 0.00 | 0.00 | 98 | 1019.3 |
| 20260503070915 | 0 | 283 | 3.2 | 4.8 | 0.00 | 0.00 | 0.00 | 98 | 1019.2 |
| 20260503070412 | 0 | 298 | 3.2 | 4.8 | 0.00 | 0.00 | 0.00 | 98 | 1019.3 |
| 20260503060338 | 0 | 281 | 3.2 | 3.2 | 0.00 | 0.00 | 0.00 | 97 | 1019.4 |
| 20260503054826 | 0 | 308 | 1.6 | 3.2 | 0.00 | 0.00 | 0.00 | 97 | 1019.3 |
| 20260503054321 | 0 | 313 | 0.0 | 3.2 | 0.00 | 0.00 | 0.00 | 96 | 1019.3 |
| 20260503053820 | 0 | 271 | 0.0 | 3.2 | 0.00 | 0.00 | 0.00 | 96 | 1019.4 |
| 20260503053318 | 0 | 281 | 1.6 | 3.2 | 0.00 | 0.00 | 0.00 | 96 | 1019.5 |
| 20260503052814 | 0 | 288 | 3.2 | 4.8 | 0.00 | 0.00 | 0.00 | 96 | 1019.5 |
| 20260503052311 | 0 | 273 | 0.0 | 3.2 | 0.00 | 0.00 | 0.00 | 96 | 1019.6 |
| 20260503051806 | 0 | 283 | 3.2 | 4.8 | 0.00 | 0.00 | 0.00 | 96 | 1019.6 |
| 20260503051303 | 0 | 313 | 1.6 | 4.8 | 0.00 | 0.00 | 0.00 | 96 | 1019.4 |
| 20260503050800 | 0 | 260 | 3.2 | 4.8 | 0.00 | 0.00 | 0.00 | 96 | 1019.4 |
| 20260503050256 | 0 | 303 | 3.2 | 3.2 | 0.00 | 0.00 | 0.00 | 95 | 1019.7 |
| 20260503045754 | 0 | 287 | 3.2 | 4.8 | 0.00 | 0.00 | 0.00 | 95 | 1019.5 |
| 20260503045252 | 0 | 279 | 3.2 | 3.2 | 0.00 | 0.00 | 0.00 | 95 | 1019.5 |
| 20260503044747 | 0 | 294 | 0.0 | 3.2 | 0.00 | 0.00 | 0.00 | 94 | 1019.4 |
| 20260503044245 | 0 | 293 | 1.6 | 3.2 | 0.00 | 0.00 | 0.00 | 94 | 1019.4 |
| 20260503043742 | 0 | 255 | 3.2 | 4.8 | 0.00 | 0.00 | 0.00 | 94 | 1019.7 |
| 20260503043234 | 0 | 265 | 1.6 | 3.2 | 0.00 | 0.00 | 0.00 | 94 | 1019.5 |
| 20260503042729 | 1 | 303 | 1.6 | 3.2 | 0.00 | 0.00 | 0.00 | 94 | 1019.5 |
| 20260503042226 | 1 | 316 | 0.0 | 3.2 | 0.00 | 0.00 | 0.00 | 94 | 1019.6 |
| 20260503041721 | 1 | 286 | 1.6 | 3.2 | 0.00 | 0.00 | 0.00 | 94 | 1019.5 |
| 20260503041220 | 1 | 299 | 1.6 | 3.2 | 0.00 | 0.00 | 0.00 | 93 | 1019.6 |
| 20260503040717 | 1 | 289 | 3.2 | 3.2 | 0.00 | 0.00 | 0.00 | 93 | 1019.6 |
| 20260503040214 | 1 | 280 | 3.2 | 3.2 | 0.00 | 0.00 | 0.00 | 92 | 1019.7 |
| 20260503035711 | 1 | 279 | 1.6 | 3.2 | 0.00 | 0.00 | 0.00 | 92 | 1019.7 |
| 20260503035208 | 1 | 306 | 0.0 | 3.2 | 0.00 | 0.00 | 0.00 | 92 | 1019.6 |
| 20260503034706 | 1 | 295 | 1.6 | 3.2 | 0.00 | 0.00 | 0.00 | 91 | 1019.8 |
| 20260503034202 | 1 | 248 | 0.0 | 3.2 | 0.00 | 0.00 | 0.00 | 90 | 1019.9 |
| 20260503033700 | 1 | 283 | 1.6 | 3.2 | 0.00 | 0.00 | 0.00 | 90 | 1019.7 |
| 20260503033157 | 1 | 287 | 3.2 | 3.2 | 0.00 | 0.00 | 0.00 | 89 | 1019.7 |
| 20260503032655 | 2 | 301 | 1.6 | 3.2 | 0.00 | 0.00 | 0.00 | 89 | 1019.6 |
| 20260503032154 | 2 | 228 | 0.0 | 3.2 | 0.00 | 0.00 | 0.00 | 88 | 1019.8 |
| 20260503031650 | 2 | 304 | 1.6 | 3.2 | 0.00 | 0.00 | 0.00 | 87 | 1019.6 |
| 20260503031149 | 2 | 283 | 3.2 | 3.2 | 0.00 | 0.00 | 0.00 | 87 | 1019.7 |
| 20260503030644 | 2 | 255 | 1.6 | 3.2 | 0.00 | 0.00 | 0.00 | 86 | 1019.8 |
| 20260503030141 | 2 | 278 | 3.2 | 3.2 | 0.00 | 0.00 | 0.00 | 86 | 1019.5 |
| 20260503025638 | 2 | 283 | 1.6 | 3.2 | 0.00 | 0.00 | 0.00 | 85 | 1019.5 |
| 20260503025136 | 2 | 255 | 3.2 | 4.8 | 0.00 | 0.00 | 0.00 | 84 | 1019.8 |
| 20260503024632 | 2 | 295 | 3.2 | 3.2 | 0.00 | 0.00 | 0.00 | 83 | 1019.7 |
| 20260503024129 | 2 | 266 | 3.2 | 4.8 | 0.00 | 0.00 | 0.00 | 82 | 1019.5 |
| 20260503023626 | 2 | 263 | 1.6 | 3.2 | 0.00 | 0.00 | 0.00 | 81 | 1019.5 |
| 20260503023123 | 3 | 268 | 1.6 | 3.2 | 0.00 | 0.00 | 0.00 | 81 | 1019.5 |
| 20260503022619 | 3 | 258 | 3.2 | 3.2 | 0.00 | 0.00 | 0.00 | 80 | 1019.4 |
| 20260503022114 | 3 | 258 | 3.2 | 3.2 | 0.00 | 0.00 | 0.00 | 80 | 1019.3 |
| 20260503021611 | 3 | 269 | 3.2 | 3.2 | 0.00 | 0.00 | 0.00 | 79 | 1019.2 |
| 20260503021108 | 3 | 309 | 0.0 | 3.2 | 0.00 | 0.00 | 0.00 | 78 | 1019.4 |
| 20260503020605 | 3 | 246 | 0.0 | 3.2 | 0.00 | 0.00 | 0.00 | 79 | 1019.3 |
| 20260503015559 | 4 | 267 | 0.0 | 3.2 | 0.00 | 0.00 | 0.00 | 74 | 1019.1 |
| 20260503015056 | 4 | 271 | 1.6 | 3.2 | 0.00 | 0.00 | 0.00 | 73 | 1018.9 |
| 20260503014551 | 5 | 256 | 1.6 | 3.2 | 0.00 | 0.00 | 0.00 | 72 | 1018.9 |
| 20260503014050 | 5 | 227 | 3.2 | 4.8 | 0.00 | 0.00 | 0.00 | 70 | 1018.6 |
| 20260503013547 | 5 | 274 | 3.2 | 4.8 | 0.00 | 0.00 | 0.00 | 71 | 1018.8 |
| 20260503013044 | 5 | 264 | 0.0 | 3.2 | 0.00 | 0.00 | 0.00 | 68 | 1018.8 |
| 20260503012542 | 5 | 269 | 0.0 | 3.2 | 0.00 | 0.00 | 0.00 | 70 | 1018.6 |
| 20260503012038 | 5 | 288 | 0.0 | 3.2 | 0.00 | 0.00 | 0.00 | 68 | 1018.6 |
| 20260503011534 | 5 | 247 | 1.6 | 4.8 | 0.00 | 0.00 | 0.00 | 66 | 1018.5 |
| 20260503011032 | 6 | 283 | 3.2 | 3.2 | 0.00 | 0.00 | 0.00 | 63 | 1018.4 |
| 20260503010528 | 6 | 291 | 1.6 | 4.8 | 0.00 | 0.00 | 0.00 | 63 | 1018.3 |
| 20260503010026 | 6 | 305 | 3.2 | 3.2 | 0.00 | 0.00 | 0.00 | 61 | 1018.2 |
| 20260503005523 | 6 | 296 | 3.2 | 4.8 | 0.00 | 0.00 | 0.00 | 59 | 1018.3 |
| 20260503005020 | 7 | 256 | 3.2 | 4.8 | 0.00 | 0.00 | 0.00 | 60 | 1018.2 |
| 20260503004516 | 7 | 290 | 1.6 | 4.8 | 0.00 | 0.00 | 0.00 | 57 | 1018.3 |
| 20260503004014 | 7 | 314 | 1.6 | 3.2 | 0.00 | 0.00 | 0.00 | 58 | 1018.3 |
| 20260503003510 | 7 | 252 | 1.6 | 4.8 | 0.00 | 0.00 | 0.00 | 60 | 1018.0 |
| 20260503003008 | 8 | 306 | 3.2 | 4.8 | 0.00 | 0.00 | 0.00 | 55 | 1018.1 |
| 20260503002505 | 8 | 126 | 3.2 | 6.4 | 0.00 | 0.00 | 0.00 | 52 | 1017.8 |
| 20260503002001 | 8 | 247 | 3.2 | 4.8 | 0.00 | 0.00 | 0.00 | 56 | 1018.0 |
| 20260503001458 | 8 | 231 | 3.2 | 8.0 | 0.00 | 0.00 | 0.00 | 50 | 1017.8 |
| 20260503000955 | 8 | 249 | 3.2 | 3.2 | 0.00 | 0.00 | 0.00 | 52 | 1017.6 |
| 20260503000452 | 9 | 331 | 3.2 | 4.8 | 0.00 | 0.00 | 0.00 | 47 | 1017.5 |
| 20260502235950 | 9 | 211 | 3.2 | 8.0 | 0.00 | 0.00 | 0.00 | 48 | 1017.7 |
| 20260502235446 | 9 | 245 | 1.6 | 6.4 | 0.00 | 0.00 | 0.00 | 51 | 1017.6 |
| 20260502234944 | 10 | 246 | 3.2 | 6.4 | 0.00 | 0.00 | 0.00 | 48 | 1017.6 |
| 20260502234440 | 10 | 223 | 1.6 | 6.4 | 0.00 | 0.00 | 0.00 | 48 | 1017.5 |
| 20260502233938 | 10 | 127 | 0.0 | 4.8 | 0.00 | 0.00 | 0.00 | 46 | 1017.6 |
| 20260502233432 | 10 | 208 | 6.4 | 8.0 | 0.00 | 0.00 | 0.00 | 46 | 1017.6 |
| 20260502232930 | 10 | 281 | 0.0 | 6.4 | 0.00 | 0.00 | 0.00 | 46 | 1017.7 |
| 20260502232426 | 10 | 252 | 4.8 | 9.7 | 0.00 | 0.00 | 0.00 | 46 | 1017.4 |
| 20260502231923 | 10 | 129 | 3.2 | 4.8 | 0.00 | 0.00 | 0.00 | 45 | 1017.4 |
| 20260502231420 | 10 | 212 | 6.4 | 14.5 | 0.00 | 0.00 | 0.00 | 46 | 1017.6 |
| 20260502230918 | 10 | 172 | 3.2 | 12.9 | 0.00 | 0.00 | 0.00 | 44 | 1017.5 |
| 20260502230416 | 11 | 186 | 4.8 | 9.7 | 0.00 | 0.00 | 0.00 | 44 | 1017.5 |
| 20260502225914 | 11 | 180 | 3.2 | 11.3 | 0.00 | 0.00 | 0.00 | 43 | 1017.7 |
| 20260502225410 | 11 | 216 | 3.2 | 11.3 | 0.00 | 0.00 | 0.00 | 46 | 1017.4 |
| 20260502224907 | 11 | 224 | 0.0 | 9.7 | 0.00 | 0.00 | 0.00 | 46 | 1017.4 |
| 20260502224403 | 11 | 177 | 1.6 | 6.4 | 0.00 | 0.00 | 0.00 | 45 | 1017.5 |
| 20260502223900 | 11 | 350 | 4.8 | 6.4 | 0.00 | 0.00 | 0.00 | 45 | 1017.5 |
| 20260502223358 | 11 | 145 | 3.2 | 11.3 | 0.00 | 0.00 | 0.00 | 41 | 1017.2 |
| 20260502222856 | 11 | 185 | 3.2 | 8.0 | 0.00 | 0.00 | 0.00 | 44 | 1017.4 |
| 20260502222353 | 11 | 259 | 3.2 | 11.3 | 0.00 | 0.00 | 0.00 | 43 | 1017.2 |
| 20260502221848 | 11 | 162 | 6.4 | 16.1 | 0.00 | 0.00 | 0.00 | 42 | 1017.3 |
| 20260502221345 | 11 | 284 | 3.2 | 6.4 | 0.00 | 0.00 | 0.00 | 44 | 1017.3 |
| 20260502220843 | 11 | 204 | 1.6 | 8.0 | 0.00 | 0.00 | 0.00 | 43 | 1017.1 |
| 20260502220338 | 11 | 258 | 9.7 | 11.3 | 0.00 | 0.00 | 0.00 | 48 | 1017.1 |
| 20260502215835 | 11 | 241 | 6.4 | 9.7 | 0.00 | 0.00 | 0.00 | 42 | 1017.1 |
| 20260502215333 | 11 | 228 | 3.2 | 8.0 | 0.00 | 0.00 | 0.00 | 42 | 1017.0 |
| 20260502214829 | 11 | 183 | 1.6 | 9.7 | 0.00 | 0.00 | 0.00 | 42 | 1017.3 |
| 20260502214325 | 11 | 271 | 3.2 | 11.3 | 0.00 | 0.00 | 0.00 | 45 | 1017.1 |
| 20260502213823 | 11 | 282 | 3.2 | 4.8 | 0.00 | 0.00 | 0.00 | 47 | 1017.1 |
| 20260502213320 | 11 | 254 | 3.2 | 4.8 | 0.00 | 0.00 | 0.00 | 44 | 1017.1 |
| 20260502212819 | 11 | 330 | 3.2 | 4.8 | 0.00 | 0.00 | 0.00 | 45 | 1017.0 |
| 20260502212317 | 11 | 213 | 3.2 | 6.4 | 0.00 | 0.00 | 0.00 | 44 | 1017.0 |
| 20260502211814 | 11 | 228 | 3.2 | 6.4 | 0.00 | 0.00 | 0.00 | 41 | 1017.0 |
| 20260502211309 | 11 | 252 | 6.4 | 6.4 | 0.00 | 0.00 | 0.00 | 42 | 1017.0 |
| 20260502210807 | 11 | 185 | 9.7 | 9.7 | 0.00 | 0.00 | 0.00 | 41 | 1017.0 |
| 20260502210304 | 11 | 154 | 6.4 | 9.7 | 0.00 | 0.00 | 0.00 | 41 | 1016.9 |
| 20260502205801 | 12 | 263 | 3.2 | 8.0 | 0.00 | 0.00 | 0.00 | 42 | 1016.9 |
| 20260502205257 | 11 | 193 | 4.8 | 11.3 | 0.00 | 0.00 | 0.00 | 42 | 1017.0 |
| 20260502204755 | 12 | 223 | 6.4 | 8.0 | 0.00 | 0.00 | 0.00 | 39 | 1016.9 |
| 20260502204252 | 11 | 218 | 4.8 | 14.5 | 0.00 | 0.00 | 0.00 | 43 | 1017.0 |
| 20260502203749 | 12 | 242 | 12.9 | 14.5 | 0.00 | 0.00 | 0.00 | 39 | 1016.9 |
| 20260502203247 | 12 | 150 | 4.8 | 9.7 | 0.00 | 0.00 | 0.00 | 40 | 1016.8 |
| 20260502202741 | 12 | 247 | 8.0 | 16.1 | 0.00 | 0.00 | 0.00 | 40 | 1016.8 |
| 20260502202240 | 12 | 244 | 4.8 | 12.9 | 0.00 | 0.00 | 0.00 | 39 | 1017.1 |
| 20260502201737 | 13 | 260 | 0.0 | 14.5 | 0.00 | 0.00 | 0.00 | 39 | 1017.1 |
| 20260502201233 | 13 | 331 | 14.5 | 16.1 | 0.00 | 0.00 | 0.00 | 39 | 1017.1 |
| 20260502200729 | 13 | 177 | 9.7 | 9.7 | 0.00 | 0.00 | 0.00 | 40 | 1016.9 |
| 20260502200226 | 12 | 333 | 8.0 | 9.7 | 0.00 | 0.00 | 0.00 | 44 | 1017.1 |
| 20260502195724 | 12 | 196 | 16.1 | 20.9 | 0.00 | 0.00 | 0.00 | 43 | 1017.2 |
| 20260502195221 | 12 | 138 | 8.0 | 12.9 | 0.00 | 0.00 | 0.00 | 42 | 1017.2 |
| 20260502194717 | 12 | 150 | 3.2 | 8.0 | 0.00 | 0.00 | 0.00 | 41 | 1017.3 |
| 20260502194214 | 11 | 203 | 6.4 | 9.7 | 0.00 | 0.00 | 0.00 | 44 | 1017.2 |
| 20260502193710 | 12 | 107 | 3.2 | 4.8 | 0.00 | 0.00 | 0.00 | 43 | 1017.3 |
| 20260502193208 | 12 | 209 | 3.2 | 11.3 | 0.00 | 0.00 | 0.00 | 41 | 1017.2 |
| 20260502192702 | 12 | 205 | 4.8 | 11.3 | 0.00 | 0.00 | 0.00 | 43 | 1017.4 |
| 20260502192200 | 12 | 266 | 3.2 | 8.0 | 0.00 | 0.00 | 0.00 | 44 | 1017.4 |
| 20260502191657 | 11 | 205 | 3.2 | 8.0 | 0.00 | 0.00 | 0.00 | 43 | 1017.5 |
| 20260502191155 | 11 | 144 | 1.6 | 11.3 | 0.00 | 0.00 | 0.00 | 43 | 1017.5 |
| 20260502190652 | 11 | 227 | 4.8 | 8.0 | 0.00 | 0.00 | 0.00 | 45 | 1017.4 |